Miscellaneous Local Product
Issued by NWS Hastings, NE

Home | Current Version | Previous Version | Text Only | Print | Product List | Glossary Off
Versions: 1 2 3 4 5 6 7 8 9 10 11 12 13 14 15 16 17 18 19 20 21 22 23 24 25 26 27 28 29 30 31 32 33 34 35 36 37 38 39 40 41 42 43 44 45 46 47 48 49 50

000
AXUS43 KGID 200710
MISGRI

GID CWA HOURLY WEATHER ROUNDUP
NATIONAL WEATHER SERVICE HASTINGS NE
200 AM CDT SAT SEP 20 2014

NOTE: "FAIR" INDICATES FEW OR NO CLOUDS BELOW 12,000 FEET WITH NO
SIGNIFICANT WEATHER AND/OR OBSTRUCTIONS TO VISIBILITY.

...SOUTH CENTRAL NEBRASKA...

CITY           SKY/WX    TMP DP  RH WIND       PRES   REMARKS
GRAND ISLAND   PTCLDY    76  61  59 SW16G28   29.86R
HASTINGS       CLEAR     73  58  59 SW10      29.88R
KEARNEY        PTCLDY    72  59  64 S14       29.88S
ORD            CLOUDY    68  62  81 W3        29.84S
YORK           CLEAR     70  63  78 SW12      29.86R
AURORA         CLEAR     73  60  64 SW9       29.86R
LEXINGTON      PTCLDY    74  60  61 SW14G24   29.88R
HOLDREGE       CLEAR     70  59  68 SW8       29.90R
HEBRON         CLEAR     72  62  69 SW9       29.89R

...NEBRASKA PANHANDLE...

CITY           SKY/WX    TMP DP  RH WIND       PRES   REMARKS
CHADRON        PTCLDY    55  51  86 CALM      30.01R
ALLIANCE       MOCLDY    59  52  77 N9        29.99R
SCOTTSBLUFF    CLEAR     60  51  72 SW6       30.01R
SIDNEY         PTCLDY    59  53  80 N7        30.00R

...WESTERN AND NORTH CENTRAL NEBRASKA...

CITY           SKY/WX    TMP DP  RH WIND       PRES   REMARKS
VALENTINE      PTCLDY    59  55  87 NW3       29.93R
AINSWORTH      CLEAR     59  55  84 CALM      29.91R
ONEILL         PTCLDY    66  59  78 N8        29.87S
BROKEN BOW     CLOUDY    68  61  78 CALM      29.88R
IMPERIAL       CLOUDY    71  60  68 SW9       29.90S
NORTH PLATTE   MOCLDY    71  61  70 S7        29.88R
MCCOOK         PTCLDY    71  60  68 S10       29.90R

...EASTERN NEBRASKA...

CITY           SKY/WX    TMP DP  RH WIND       PRES   REMARKS
NORFOLK        MOCLDY    72  65  78 SW6       29.82S
SO SIOUX CITY  TSTM      67  65  93 S9        29.80R
TEKAMAH        LGT RAIN  75  68  78 W5        29.83R
ALBION         LGT RAIN  74  62  65 W8        29.85R
OMAHA EPPLEY   PTCLDY    74  67  78 S12       29.82R
OFFUTT AFB     CLEAR     72  71  99 S6        29.83R
MILLARD        CLEAR     73  68  83 S6        29.82R
LINCOLN        CLEAR     74  66  76 SW13      29.85R
NEBRASKA CITY    N/A     70  68  94 SW12      29.86R
BEATRICE       CLEAR     72  67  85 SW12      29.87R
FALLS CITY     CLEAR     70  67  90 S12G20    29.87S

...NORTHERN KANSAS...

CITY           SKY/WX    TMP DP  RH WIND       PRES   REMARKS
GOODLAND       PTCLDY    66  61  84 W9        30.00R
HILL CITY      CLEAR     73  59  61 SW8       29.93R
NORTON         SUNNY     73  57  56 S9G16     29.91R
SMITH CENTER   CLEAR     70  61  73 S9        29.92R
BELOIT         CLEAR     72  63  73 S10G18    29.88S
HAYS           CLEAR     70  57  64 S14       29.93F
RUSSELL        CLEAR     71  61  70 S15       29.91F
CONCORDIA      CLEAR     71  65  81 S21G30    29.89S
SALINA         CLEAR     73  66  78 S13       29.93S
TOPEKA         PTCLDY    70  68  93 S12       29.93S



USA.gov is the U.S. government's official web portal to all federal, state and local government web resources and services.